Regional Weather Roundup
Issued by NWS

Home | Current Version | Previous Version | Graphics & Text | Print | Product List | Glossary On
Versions: 1 2 3 4 5 6 7 8 9 10 11 12 13 14 15 16 17 18 19 20 21 22 23 24 25 26 27 28 29 30 31 32 33 34 35 36 37 38 39 40 41 42 43 44 45 46 47 48 49 50
000
ASUS44 KMEG 290510
RWRTN
TENNESSEE HOURLY STATE WEATHER ROUNDUP
NATIONAL WEATHER SERVICE MEMPHIS TN
1200 AM CDT WED JUL 29 2015

TNZ002-004-019-021-049-052-054-088>092-290600-
WEST TENNESSEE

CITY           SKY/WX    TMP DP  RH WIND       PRES   REMARKS
MEMPHIS INTL   CLEAR     89  74  60 SE5       30.00S HX  98
NWS MEMPHIS      N/A     81 N/A N/A MISG        N/A
JACKSON        PTCLDY    79  74  84 E7        29.99F
DYERSBURG        N/A    N/A N/A N/A MISG        N/A
PARIS          CLEAR     72  70  94 CALM      30.01F
LEXINGTON      CLEAR     72  72 100 VRB3      30.00R
$$

TNZ008-025-027-028-033-062-065-066-290600-
NORTH MIDDLE TENNESSEE

CITY           SKY/WX    TMP DP  RH WIND       PRES   REMARKS
NASHVILLE      CLOUDY    76  75  97 CALM      30.00F
CLARKSVILLE    CLOUDY    74  72  93 E3        30.00R
SMYRNA         CLOUDY    76  75  96 CALM      30.01F
CROSSVILLE     PTCLDY    72  68  87 CALM      30.09S
$$

TNZ061-075-076-078-094-096-097-290600-
SOUTH MIDDLE TENNESSEE

CITY           SKY/WX    TMP DP  RH WIND       PRES   REMARKS
FAYETTEVILLE   CLEAR     73  73 100 CALM      30.02F
TULLAHOMA      CLEAR     75  72  88 CALM      30.04S
WINCHESTER     CLEAR     73  72  94 CALM      30.03S
MCMINNVILLE    CLEAR     73  73 100 CALM      30.04R
SHELBYVILLE    CLEAR     75  75 100 CALM      30.03F
$$

TNZ017-018-042-046-047-290600-
NORTHEAST TENNESSEE

CITY           SKY/WX    TMP DP  RH WIND       PRES   REMARKS
TRI CITIES     PTCLDY    71  69  93 CALM      30.05S
ELIZABETHTON   MOCLDY    70  68  94 CALM      30.07R
$$

TNZ012-013-036-069-073-074-290600-
CENTRAL EAST TENNESSEE

CITY           SKY/WX    TMP DP  RH WIND       PRES   REMARKS
KNOXVILLE      CLOUDY    78  72  81 CALM      30.01S
OAK RIDGE      CLOUDY    76  72  87 CALM      30.03R
GATLINBURG     CLEAR     73  72  94 CALM      30.01F
MORRISTOWN     CLEAR     73  73 100 CALM      30.05R
$$

TNZ083-085-099-290600-
SOUTHEAST TENNESSEE

CITY           SKY/WX    TMP DP  RH WIND       PRES   REMARKS
CHATTANOOGA    MOCLDY    79  75  87 CALM      30.02R
$$

SKY/WX REPORTED AS FAIR MEANS FEW OR NO CLOUDS BELOW
12 THOUSAND FEET.




USA.gov is the U.S. government's official web portal to all federal, state and local government web resources and services.